This is the latest recevied weather packets stored in our database for station/object KB3AWQ. If no packets are shown the sender has not sent any weather packets the latest 10 day(s).
| Time | Temp. | Humidity | Pressure | Rain* | Wind** | Luminosity | Snow |
|---|---|---|---|---|---|---|---|
| 1777463967 | 12.22° C | 84% | 1014.1 hPa | 0 mm | - | 42 W/m² | - |
| 1777463666 | 12.22° C | 84% | 1014.3 hPa | 0 mm | - | 38 W/m² | - |
| 1777463367 | 12.22° C | 84% | 1014.4 hPa | 0 mm | - | 34 W/m² | - |
| 1777463067 | 12.22° C | 84% | 1014.3 hPa | 0 mm | - | 36 W/m² | - |
| 1777462767 | 12.22° C | 85% | 1014.3 hPa | 0 mm | - | 36 W/m² | - |
| 1777462468 | 12.22° C | 84% | 1014.3 hPa | 0 mm | - | 31 W/m² | - |
| 1777462166 | 12.22° C | 85% | 1014.4 hPa | 0 mm | - | 24 W/m² | - |
| 1777461867 | 11.67° C | 84% | 1014.5 hPa | 0 mm | - | 24 W/m² | - |
| 1777461567 | 11.67° C | 86% | 1014.5 hPa | 0 mm | - | 24 W/m² | - |
| 1777461266 | 11.67° C | 86% | 1014.4 hPa | 0 mm | - | 18 W/m² | - |
| 1777460968 | 11.67° C | 87% | 1014.3 hPa | 0 mm | - | 19 W/m² | - |
| 1777460666 | 11.67° C | 87% | 1014.3 hPa | 0 mm | - | 18 W/m² | - |
| 1777460367 | 11.67° C | 87% | 1014.3 hPa | 0 mm | - | 18 W/m² | - |
| 1777460066 | 11.67° C | 87% | 1014.3 hPa | 0 mm | - | 16 W/m² | - |
| 1777459767 | 11.67° C | 87% | 1014.3 hPa | 0 mm | - | 12 W/m² | - |
| 1777459467 | 11.67° C | 87% | 1014.2 hPa | 0 mm | - | 11 W/m² | - |
| 1777459168 | 11.67° C | 87% | 1014.1 hPa | 0 mm | - | 9 W/m² | - |
| 1777458867 | 11.67° C | 87% | 1014.1 hPa | 0 mm | - | 7 W/m² | - |
| 1777458566 | 11.67° C | 86% | 1014.1 hPa | 0 mm | - | 6 W/m² | - |
| 1777458267 | 11.67° C | 87% | 1014.2 hPa | 0 mm | - | 4 W/m² | - |
| 1777457966 | 11.67° C | 86% | 1014.1 hPa | 0 mm | - | 3 W/m² | - |
| 1777457667 | 11.67° C | 86% | 1014.1 hPa | 0 mm | - | 2 W/m² | - |
| 1777457369 | 11.67° C | 87% | 1014 hPa | 0 mm | - | 1 W/m² | - |
| 1777457068 | 11.67° C | 87% | 1014 hPa | 0 mm | - | 1 W/m² | - |
| 1777456767 | 11.67° C | 87% | 1014.2 hPa | 0 mm | - | 0 W/m² | - |
* Rain latest hour (hover to see other rain measurements)
** Current wind speed in m/s (hover to see current wind gust speed)